| time (UTC) | temp F | wind direction | speed knots | gust knots | rain 1hr in | rain 24hr in | rain mn in | humidity % | barometer mb |
| 20260507003025 | 55 | 227 | 0.9 | 2.6 | 0.00 | 0.00 | 0.00 | 49 | 1025.2 |
| 20260507002524 | 55 | 235 | 0.9 | 3.5 | 0.00 | 0.00 | 0.00 | 50 | 1025.2 |
| 20260507002003 | 55 | 215 | 0.9 | 3.5 | 0.00 | 0.00 | 0.00 | 50 | 1025.5 |
| 20260507001503 | 55 | 227 | 0.9 | 3.5 | 0.00 | 0.00 | 0.00 | 51 | 1025.3 |
| 20260507001003 | 54 | 227 | 0.9 | 3.5 | 0.00 | 0.00 | 0.00 | 51 | 1025.5 |
| 20260507000524 | 54 | 233 | 0.9 | 3.5 | 0.00 | 0.00 | 0.00 | 52 | 1025.4 |
| 20260507000003 | 54 | 250 | 1.7 | 2.6 | 0.00 | 0.00 | 0.00 | 52 | 1025.4 |
| 20260506235503 | 54 | 249 | 1.7 | 2.6 | 0.00 | 0.00 | 0.00 | 52 | 1025.4 |
| 20260506235003 | 54 | 235 | 1.7 | 3.5 | 0.00 | 0.00 | 0.00 | 52 | 1025.0 |
| 20260506234503 | 55 | 228 | 1.7 | 4.3 | 0.00 | 0.00 | 0.00 | 51 | 1025.4 |
| 20260506234003 | 55 | 240 | 1.7 | 4.3 | 0.00 | 0.00 | 0.00 | 51 | 1025.3 |
| 20260506233503 | 55 | 250 | 1.7 | 3.5 | 0.00 | 0.00 | 0.00 | 50 | 1025.7 |
| 20260506233003 | 56 | 237 | 1.7 | 3.5 | 0.00 | 0.00 | 0.00 | 49 | 1025.6 |
| 20260506232524 | 56 | 237 | 0.9 | 3.5 | 0.00 | 0.00 | 0.00 | 48 | 1025.6 |
| 20260506232003 | 56 | 19 | 0.9 | 2.6 | 0.00 | 0.00 | 0.00 | 48 | 1025.6 |
| 20260506231503 | 56 | 57 | 0.9 | 1.7 | 0.00 | 0.00 | 0.00 | 47 | 1025.4 |
| 20260506231003 | 57 | 139 | 0.9 | 1.7 | 0.00 | 0.00 | 0.00 | 46 | 1025.4 |
| 20260506230503 | 57 | 165 | 0.0 | 1.7 | 0.00 | 0.00 | 0.00 | 45 | 1025.6 |
| 20260506230024 | 57 | 194 | 0.9 | 2.6 | 0.00 | 0.00 | 0.00 | 45 | 1025.5 |
| 20260506225524 | 58 | 194 | 0.9 | 2.6 | 0.00 | 0.00 | 0.00 | 44 | 1025.5 |
| 20260506225003 | 57 | 196 | 0.9 | 2.6 | 0.00 | 0.00 | 0.00 | 44 | 1025.4 |
| 20260506224503 | 57 | 210 | 0.9 | 2.6 | 0.00 | 0.00 | 0.00 | 45 | 1025.4 |
| 20260506224003 | 57 | 215 | 0.9 | 1.7 | 0.00 | 0.00 | 0.00 | 45 | 1025.4 |
| 20260506223503 | 57 | 204 | 0.0 | 1.7 | 0.00 | 0.00 | 0.00 | 46 | 1025.4 |
| 20260506223003 | 57 | 337 | 0.0 | 2.6 | 0.00 | 0.00 | 0.00 | 46 | 1025.3 |
| 20260506222503 | 57 | 335 | 0.9 | 2.6 | 0.00 | 0.00 | 0.00 | 46 | 1025.2 |
| 20260506222003 | 57 | 342 | 0.9 | 2.6 | 0.00 | 0.00 | 0.00 | 46 | 1025.4 |
| 20260506221524 | 58 | 357 | 0.0 | 1.7 | 0.00 | 0.00 | 0.00 | 45 | 1025.4 |
| 20260506221003 | 58 | 138 | 0.0 | 1.7 | 0.00 | 0.00 | 0.00 | 43 | 1025.6 |
| 20260506220503 | 59 | 171 | 0.0 | 1.7 | 0.00 | 0.00 | 0.00 | 42 | 1025.2 |
| 20260506220004 | 59 | 218 | 0.9 | 1.7 | 0.00 | 0.00 | 0.00 | 42 | 1025.3 |
| 20260506215524 | 60 | 220 | 0.9 | 1.7 | 0.00 | 0.00 | 0.00 | 41 | 1025.5 |
| 20260506215003 | 60 | 182 | 0.0 | 1.7 | 0.00 | 0.00 | 0.00 | 40 | 1025.4 |
| 20260506214503 | 60 | 185 | 0.0 | 1.7 | 0.00 | 0.00 | 0.00 | 39 | 1025.5 |
| 20260506214003 | 61 | 178 | 0.0 | 1.7 | 0.00 | 0.00 | 0.00 | 39 | 1025.5 |
| 20260506213524 | 61 | 134 | 0.0 | 1.7 | 0.00 | 0.00 | 0.00 | 38 | 1025.4 |
| 20260506213003 | 61 | 89 | 0.0 | 0.9 | 0.00 | 0.00 | 0.00 | 38 | 1025.3 |
| 20260506212524 | 61 | 119 | 0.9 | 3.5 | 0.00 | 0.00 | 0.00 | 38 | 1025.4 |
| 20260506212003 | 61 | 127 | 1.7 | 4.3 | 0.00 | 0.00 | 0.00 | 38 | 1025.5 |
| 20260506211503 | 61 | 125 | 3.5 | 4.3 | 0.00 | 0.00 | 0.00 | 38 | 1025.5 |
| 20260506211003 | 62 | 124 | 3.5 | 5.2 | 0.00 | 0.00 | 0.00 | 37 | 1025.5 |
| 20260506210524 | 62 | 119 | 3.5 | 5.2 | 0.00 | 0.00 | 0.00 | 37 | 1025.4 |
| 20260506210004 | 62 | 118 | 2.6 | 4.3 | 0.00 | 0.00 | 0.00 | 37 | 1025.4 |
| 20260506205503 | 62 | 109 | 3.5 | 5.2 | 0.00 | 0.00 | 0.00 | 38 | 1025.4 |
| 20260506205003 | 62 | 104 | 4.3 | 6.1 | 0.00 | 0.00 | 0.00 | 37 | 1025.3 |
| 20260506204503 | 62 | 105 | 3.5 | 6.1 | 0.00 | 0.00 | 0.00 | 37 | 1025.3 |
| 20260506204003 | 62 | 107 | 2.6 | 5.2 | 0.00 | 0.00 | 0.00 | 37 | 1025.4 |
| 20260506203503 | 62 | 105 | 2.6 | 5.2 | 0.00 | 0.00 | 0.00 | 37 | 1025.2 |
| 20260506203003 | 62 | 105 | 3.5 | 5.2 | 0.00 | 0.00 | 0.00 | 37 | 1025.4 |
| 20260506202524 | 62 | 107 | 2.6 | 4.3 | 0.00 | 0.00 | 0.00 | 37 | 1025.4 |
| 20260506202003 | 62 | 107 | 2.6 | 4.3 | 0.00 | 0.00 | 0.00 | 37 | 1025.3 |
| 20260506201503 | 62 | 108 | 2.6 | 4.3 | 0.00 | 0.00 | 0.00 | 37 | 1025.3 |
| 20260506201003 | 62 | 105 | 1.7 | 3.5 | 0.00 | 0.00 | 0.00 | 37 | 1025.1 |
| 20260506200504 | 62 | 102 | 1.7 | 3.5 | 0.00 | 0.00 | 0.00 | 37 | 1025.1 |
| 20260506200004 | 62 | 105 | 1.7 | 3.5 | 0.00 | 0.00 | 0.00 | 37 | 1025.0 |
| 20260506195503 | 62 | 106 | 1.7 | 3.5 | 0.00 | 0.00 | 0.00 | 37 | 1025.1 |
| 20260506195003 | 62 | 109 | 1.7 | 3.5 | 0.00 | 0.00 | 0.00 | 37 | 1025.1 |
| 20260506194503 | 63 | 107 | 1.7 | 3.5 | 0.00 | 0.00 | 0.00 | 37 | 1025.0 |
| 20260506194003 | 63 | 103 | 2.6 | 5.2 | 0.00 | 0.00 | 0.00 | 37 | 1025.0 |
| 20260506193503 | 63 | 107 | 2.6 | 5.2 | 0.00 | 0.00 | 0.00 | 37 | 1024.9 |
| 20260506193003 | 63 | 117 | 2.6 | 4.3 | 0.00 | 0.00 | 0.00 | 36 | 1025.0 |
| 20260506192503 | 63 | 117 | 2.6 | 4.3 | 0.00 | 0.00 | 0.00 | 36 | 1025.0 |
| 20260506192003 | 64 | 109 | 2.6 | 5.2 | 0.00 | 0.00 | 0.00 | 36 | 1025.0 |
| 20260506191503 | 64 | 105 | 3.5 | 5.2 | 0.00 | 0.00 | 0.00 | 36 | 1025.0 |
| 20260506191003 | 64 | 108 | 3.5 | 5.2 | 0.00 | 0.00 | 0.00 | 35 | 1024.7 |
| 20260506190503 | 64 | 113 | 2.6 | 4.3 | 0.00 | 0.00 | 0.00 | 36 | 1025.1 |
| 20260506190003 | 65 | 119 | 2.6 | 4.3 | 0.00 | 0.00 | 0.00 | 35 | 1024.8 |
| 20260506185503 | 65 | 128 | 3.5 | 4.3 | 0.00 | 0.00 | 0.00 | 35 | 1024.8 |
| 20260506185003 | 65 | 129 | 3.5 | 5.2 | 0.00 | 0.00 | 0.00 | 34 | 1024.7 |
| 20260506184524 | 66 | 125 | 3.5 | 5.2 | 0.00 | 0.00 | 0.00 | 34 | 1024.8 |
| 20260506184003 | 66 | 125 | 3.5 | 5.2 | 0.00 | 0.00 | 0.00 | 34 | 1024.7 |
| 20260506183503 | 66 | 129 | 4.3 | 7.0 | 0.00 | 0.00 | 0.00 | 33 | 1025.0 |
| 20260506183005 | 66 | 132 | 4.3 | 7.8 | 0.00 | 0.00 | 0.00 | 33 | 1024.8 |
| 20260506182503 | 66 | 131 | 5.2 | 7.8 | 0.00 | 0.00 | 0.00 | 33 | 1024.6 |
| 20260506182024 | 66 | 128 | 5.2 | 8.7 | 0.00 | 0.00 | 0.00 | 33 | 1024.7 |
| 20260506181524 | 66 | 130 | 5.2 | 8.7 | 0.00 | 0.00 | 0.00 | 33 | 1024.8 |
| 20260506181003 | 66 | 130 | 4.3 | 7.0 | 0.00 | 0.00 | 0.00 | 33 | 1024.8 |
| 20260506180503 | 66 | 132 | 5.2 | 7.8 | 0.00 | 0.00 | 0.00 | 33 | 1025.0 |
| 20260506180004 | 66 | 136 | 5.2 | 7.8 | 0.00 | 0.00 | 0.00 | 33 | 1024.8 |
| 20260506175503 | 66 | 136 | 5.2 | 8.7 | 0.00 | 0.00 | 0.00 | 33 | 1024.9 |
| 20260506175024 | 67 | 134 | 5.2 | 8.7 | 0.00 | 0.00 | 0.00 | 33 | 1025.0 |
| 20260506174503 | 66 | 131 | 4.3 | 7.8 | 0.00 | 0.00 | 0.00 | 33 | 1024.8 |
| 20260506174003 | 66 | 124 | 3.5 | 5.2 | 0.00 | 0.00 | 0.00 | 33 | 1024.8 |
| 20260506173503 | 66 | 126 | 3.5 | 7.0 | 0.00 | 0.00 | 0.00 | 33 | 1025.0 |
| 20260506173024 | 66 | 137 | 4.3 | 7.8 | 0.00 | 0.00 | 0.00 | 33 | 1024.9 |
| 20260506172503 | 66 | 136 | 5.2 | 8.7 | 0.00 | 0.00 | 0.00 | 33 | 1025.1 |
| 20260506172024 | 66 | 132 | 5.2 | 8.7 | 0.00 | 0.00 | 0.00 | 32 | 1024.9 |
| 20260506171504 | 66 | 138 | 5.2 | 8.7 | 0.00 | 0.00 | 0.00 | 33 | 1025.0 |
| 20260506171003 | 66 | 138 | 5.2 | 9.6 | 0.00 | 0.00 | 0.00 | 33 | 1025.1 |
| 20260506170504 | 67 | 143 | 5.2 | 9.6 | 0.00 | 0.00 | 0.00 | 33 | 1025.1 |
| 20260506170003 | 67 | 147 | 5.2 | 11.3 | 0.00 | 0.00 | 0.00 | 33 | 1025.1 |
| 20260506165503 | 67 | 153 | 6.1 | 11.3 | 0.00 | 0.00 | 0.00 | 32 | 1025.1 |
| 20260506165003 | 67 | 152 | 5.2 | 10.4 | 0.00 | 0.00 | 0.00 | 33 | 1025.2 |
| 20260506164503 | 67 | 129 | 4.3 | 10.4 | 0.00 | 0.00 | 0.00 | 32 | 1025.1 |
| 20260506164003 | 67 | 147 | 3.5 | 7.8 | 0.00 | 0.00 | 0.00 | 32 | 1024.8 |
| 20260506163503 | 67 | 156 | 3.5 | 6.1 | 0.00 | 0.00 | 0.00 | 32 | 1025.0 |
| 20260506163003 | 68 | 143 | 3.5 | 6.1 | 0.00 | 0.00 | 0.00 | 32 | 1024.9 |
| 20260506162503 | 68 | 126 | 2.6 | 6.1 | 0.00 | 0.00 | 0.00 | 30 | 1025.0 |
| 20260506162004 | 68 | 121 | 3.5 | 7.8 | 0.00 | 0.00 | 0.00 | 30 | 1025.3 |
| 20260506161524 | 68 | 129 | 3.5 | 7.8 | 0.00 | 0.00 | 0.00 | 30 | 1025.1 |
| 20260506161003 | 67 | 126 | 2.6 | 6.1 | 0.00 | 0.00 | 0.00 | 31 | 1025.3 |
| 20260506160504 | 67 | 77 | 3.5 | 8.7 | 0.00 | 0.00 | 0.00 | 32 | 1024.9 |
| 20260506160003 | 67 | 66 | 3.5 | 8.7 | 0.00 | 0.00 | 0.00 | 32 | 1025.1 |
| 20260506155503 | 67 | 63 | 2.6 | 5.2 | 0.00 | 0.00 | 0.00 | 33 | 1025.1 |
| 20260506155003 | 67 | 169 | 2.6 | 4.3 | 0.00 | 0.00 | 0.00 | 33 | 1025.3 |
| 20260506154503 | 67 | 185 | 3.5 | 6.1 | 0.00 | 0.00 | 0.00 | 32 | 1025.4 |
| 20260506154003 | 67 | 194 | 3.5 | 6.1 | 0.00 | 0.00 | 0.00 | 33 | 1025.3 |
| 20260506153503 | 67 | 36 | 3.5 | 11.3 | 0.00 | 0.00 | 0.00 | 33 | 1025.2 |
| 20260506153003 | 67 | 50 | 3.5 | 11.3 | 0.00 | 0.00 | 0.00 | 32 | 1025.3 |
| 20260506152503 | 68 | 118 | 2.6 | 7.0 | 0.00 | 0.00 | 0.00 | 32 | 1025.6 |
| 20260506152003 | 67 | 165 | 2.6 | 7.8 | 0.00 | 0.00 | 0.00 | 32 | 1025.4 |
| 20260506151503 | 67 | 138 | 1.7 | 7.8 | 0.00 | 0.00 | 0.00 | 32 | 1025.7 |
| 20260506151003 | 68 | 30 | 2.6 | 7.8 | 0.00 | 0.00 | 0.00 | 32 | 1025.8 |
| 20260506150503 | 68 | 31 | 4.3 | 10.4 | 0.00 | 0.00 | 0.00 | 32 | 1025.6 |
| 20260506150003 | 68 | 44 | 4.3 | 11.3 | 0.00 | 0.00 | 0.00 | 31 | 1025.8 |
| 20260506145503 | 69 | 51 | 4.3 | 11.3 | 0.00 | 0.00 | 0.00 | 31 | 1026.0 |
| 20260506145003 | 69 | 52 | 4.3 | 10.4 | 0.00 | 0.00 | 0.00 | 32 | 1026.0 |
| 20260506144503 | 68 | 75 | 4.3 | 10.4 | 0.00 | 0.00 | 0.00 | 32 | 1026.1 |
| 20260506144003 | 68 | 103 | 5.2 | 10.4 | 0.00 | 0.00 | 0.00 | 32 | 1026.1 |
| 20260506143503 | 67 | 99 | 5.2 | 11.3 | 0.00 | 0.00 | 0.00 | 34 | 1026.2 |
| 20260506143003 | 68 | 98 | 5.2 | 15.6 | 0.00 | 0.00 | 0.00 | 33 | 1026.3 |
| 20260506142503 | 68 | 133 | 5.2 | 15.6 | 0.00 | 0.00 | 0.00 | 33 | 1026.4 |
| 20260506142003 | 67 | 139 | 3.5 | 9.6 | 0.00 | 0.00 | 0.00 | 33 | 1026.2 |
| 20260506141503 | 67 | 61 | 2.6 | 6.1 | 0.00 | 0.00 | 0.00 | 32 | 1026.6 |
| 20260506141024 | 67 | 108 | 5.2 | 13.0 | 0.00 | 0.00 | 0.00 | 33 | 1026.4 |
| 20260506140524 | 67 | 111 | 5.2 | 13.0 | 0.00 | 0.00 | 0.00 | 33 | 1026.5 |
| 20260506140003 | 67 | 74 | 2.6 | 7.0 | 0.00 | 0.00 | 0.00 | 33 | 1026.5 |
| 20260506135503 | 65 | 67 | 3.5 | 7.0 | 0.00 | 0.00 | 0.00 | 34 | 1026.4 |
| 20260506135003 | 65 | 64 | 4.3 | 10.4 | 0.00 | 0.00 | 0.00 | 35 | 1026.7 |
| 20260506134503 | 65 | 67 | 4.3 | 10.4 | 0.00 | 0.00 | 0.00 | 35 | 1026.6 |
| 20260506134003 | 64 | 76 | 4.3 | 9.6 | 0.00 | 0.00 | 0.00 | 36 | 1026.7 |
| 20260506133503 | 65 | 95 | 5.2 | 12.2 | 0.00 | 0.00 | 0.00 | 35 | 1026.7 |
| 20260506133003 | 65 | 109 | 6.1 | 12.2 | 0.00 | 0.00 | 0.00 | 35 | 1026.6 |
| 20260506132503 | 66 | 113 | 5.2 | 11.3 | 0.00 | 0.00 | 0.00 | 35 | 1026.8 |
| 20260506132003 | 65 | 135 | 4.3 | 8.7 | 0.00 | 0.00 | 0.00 | 35 | 1026.9 |
| 20260506131503 | 65 | 163 | 5.2 | 8.7 | 0.00 | 0.00 | 0.00 | 35 | 1026.7 |
| 20260506131003 | 65 | 166 | 5.2 | 11.3 | 0.00 | 0.00 | 0.00 | 35 | 1027.0 |
| 20260506130503 | 66 | 144 | 4.3 | 11.3 | 0.00 | 0.00 | 0.00 | 34 | 1027.1 |
| 20260506130004 | 67 | 86 | 2.6 | 7.0 | 0.00 | 0.00 | 0.00 | 33 | 1027.2 |
| 20260506125524 | 66 | 82 | 3.5 | 7.0 | 0.00 | 0.00 | 0.00 | 34 | 1027.1 |
| 20260506125003 | 66 | 98 | 4.3 | 8.7 | 0.00 | 0.00 | 0.00 | 34 | 1027.2 |
| 20260506124503 | 67 | 133 | 5.2 | 11.3 | 0.00 | 0.00 | 0.00 | 34 | 1027.4 |
| 20260506124004 | 66 | 144 | 4.3 | 11.3 | 0.00 | 0.00 | 0.00 | 35 | 1027.1 |
| 20260506123503 | 66 | 188 | 3.5 | 11.3 | 0.00 | 0.00 | 0.00 | 36 | 1027.2 |
| 20260506123003 | 65 | 270 | 3.5 | 9.6 | 0.00 | 0.00 | 0.00 | 36 | 1027.3 |
| 20260506122503 | 65 | 267 | 3.5 | 9.6 | 0.00 | 0.00 | 0.00 | 35 | 1027.4 |
| 20260506122003 | 65 | 283 | 2.6 | 7.0 | 0.00 | 0.00 | 0.00 | 36 | 1027.7 |
| 20260506121503 | 65 | 252 | 2.6 | 7.0 | 0.00 | 0.00 | 0.00 | 36 | 1027.7 |
| 20260506121003 | 64 | 205 | 3.5 | 7.8 | 0.00 | 0.00 | 0.00 | 37 | 1027.6 |
| 20260506120503 | 64 | 154 | 4.3 | 8.7 | 0.00 | 0.00 | 0.00 | 38 | 1027.9 |
| 20260506120024 | 64 | 156 | 4.3 | 8.7 | 0.00 | 0.00 | 0.00 | 38 | 1028.0 |
| 20260506115503 | 64 | 235 | 2.6 | 7.8 | 0.00 | 0.00 | 0.00 | 37 | 1027.8 |
| 20260506115024 | 64 | 358 | 2.6 | 7.0 | 0.00 | 0.00 | 0.00 | 39 | 1028.1 |
| 20260506114503 | 63 | 34 | 2.6 | 7.0 | 0.00 | 0.00 | 0.00 | 39 | 1027.7 |
| 20260506114003 | 63 | 138 | 3.5 | 7.8 | 0.00 | 0.00 | 0.00 | 39 | 1028.1 |
| 20260506113524 | 63 | 134 | 4.3 | 7.8 | 0.00 | 0.00 | 0.00 | 40 | 1027.9 |
| 20260506113003 | 62 | 124 | 4.3 | 7.0 | 0.00 | 0.00 | 0.00 | 40 | 1028.0 |
| 20260506112503 | 63 | 128 | 4.3 | 8.7 | 0.00 | 0.00 | 0.00 | 40 | 1028.1 |
| 20260506112003 | 63 | 133 | 4.3 | 8.7 | 0.00 | 0.00 | 0.00 | 41 | 1028.1 |
| 20260506111503 | 63 | 114 | 4.3 | 9.6 | 0.00 | 0.00 | 0.00 | 41 | 1028.1 |
| 20260506111003 | 64 | 104 | 3.5 | 9.6 | 0.00 | 0.00 | 0.00 | 40 | 1028.0 |
| 20260506110504 | 64 | 126 | 4.3 | 9.6 | 0.00 | 0.00 | 0.00 | 41 | 1028.3 |
| 20260506110003 | 63 | 119 | 6.1 | 9.6 | 0.00 | 0.00 | 0.00 | 41 | 1028.3 |
| 20260506105503 | 63 | 96 | 4.3 | 8.7 | 0.00 | 0.00 | 0.00 | 41 | 1028.0 |
| 20260506105003 | 62 | 109 | 4.3 | 9.6 | 0.00 | 0.00 | 0.00 | 43 | 1028.2 |
| 20260506104503 | 63 | 137 | 5.2 | 10.4 | 0.00 | 0.00 | 0.00 | 41 | 1028.2 |
| 20260506104003 | 63 | 153 | 4.3 | 10.4 | 0.00 | 0.00 | 0.00 | 41 | 1028.4 |
| 20260506103503 | 64 | 153 | 2.6 | 7.0 | 0.00 | 0.00 | 0.00 | 40 | 1028.2 |
| 20260506103003 | 63 | 136 | 3.5 | 9.6 | 0.00 | 0.00 | 0.00 | 42 | 1028.4 |
| 20260506102503 | 62 | 124 | 3.5 | 9.6 | 0.00 | 0.00 | 0.00 | 43 | 1028.3 |
| 20260506102003 | 62 | 70 | 3.5 | 7.8 | 0.00 | 0.00 | 0.00 | 43 | 1028.5 |
| 20260506101524 | 62 | 84 | 3.5 | 7.8 | 0.00 | 0.00 | 0.00 | 44 | 1028.4 |
| 20260506101003 | 62 | 125 | 4.3 | 9.6 | 0.00 | 0.00 | 0.00 | 43 | 1028.6 |
| 20260506100503 | 61 | 157 | 5.2 | 9.6 | 0.00 | 0.00 | 0.00 | 44 | 1028.7 |
| 20260506100003 | 61 | 170 | 5.2 | 9.6 | 0.00 | 0.00 | 0.00 | 46 | 1028.4 |
| 20260506095503 | 61 | 142 | 5.2 | 11.3 | 0.00 | 0.00 | 0.00 | 45 | 1028.6 |
| 20260506095024 | 61 | 117 | 4.3 | 12.2 | 0.00 | 0.00 | 0.00 | 46 | 1028.6 |
| 20260506094503 | 60 | 127 | 4.3 | 12.2 | 0.00 | 0.00 | 0.00 | 46 | 1028.5 |
| 20260506094003 | 60 | 143 | 6.1 | 12.2 | 0.00 | 0.00 | 0.00 | 48 | 1028.5 |
| 20260506093503 | 60 | 131 | 6.1 | 12.2 | 0.00 | 0.00 | 0.00 | 47 | 1028.5 |
| 20260506093003 | 60 | 107 | 4.3 | 10.4 | 0.00 | 0.00 | 0.00 | 48 | 1028.4 |
| 20260506092503 | 61 | 133 | 4.3 | 8.7 | 0.00 | 0.00 | 0.00 | 48 | 1028.4 |
| 20260506092003 | 59 | 143 | 5.2 | 12.2 | 0.00 | 0.00 | 0.00 | 50 | 1028.5 |
| 20260506091503 | 60 | 130 | 5.2 | 12.2 | 0.00 | 0.00 | 0.00 | 49 | 1028.2 |
| 20260506091003 | 60 | 121 | 4.3 | 8.7 | 0.00 | 0.00 | 0.00 | 50 | 1028.3 |
| 20260506090503 | 60 | 132 | 4.3 | 8.7 | 0.00 | 0.00 | 0.00 | 50 | 1028.4 |
| 20260506090024 | 59 | 135 | 5.2 | 11.3 | 0.00 | 0.00 | 0.00 | 50 | 1028.2 |
| 20260506085524 | 59 | 125 | 5.2 | 11.3 | 0.00 | 0.00 | 0.00 | 49 | 1028.3 |
| 20260506085024 | 60 | 123 | 4.3 | 7.8 | 0.00 | 0.00 | 0.00 | 49 | 1028.4 |
| 20260506084503 | 59 | 119 | 3.5 | 7.8 | 0.00 | 0.00 | 0.00 | 49 | 1028.5 |
| 20260506084003 | 59 | 131 | 4.3 | 9.6 | 0.00 | 0.00 | 0.00 | 50 | 1028.2 |
| 20260506083503 | 58 | 147 | 5.2 | 10.4 | 0.00 | 0.00 | 0.00 | 50 | 1028.4 |
| 20260506083003 | 59 | 157 | 3.5 | 10.4 | 0.00 | 0.00 | 0.00 | 50 | 1028.5 |
| 20260506082504 | 60 | 150 | 2.6 | 8.7 | 0.00 | 0.00 | 0.00 | 49 | 1028.4 |
| 20260506082003 | 60 | 143 | 1.7 | 4.3 | 0.00 | 0.00 | 0.00 | 49 | 1028.3 |
| 20260506081503 | 59 | 207 | 0.9 | 4.3 | 0.00 | 0.00 | 0.00 | 51 | 1028.3 |
| 20260506081003 | 59 | 170 | 1.7 | 5.2 | 0.00 | 0.00 | 0.00 | 50 | 1028.7 |
| 20260506080504 | 58 | 141 | 2.6 | 5.2 | 0.00 | 0.00 | 0.00 | 52 | 1028.5 |
| 20260506073504 | 56 | 142 | 2.6 | 5.2 | 0.00 | 0.00 | 0.00 | 54 | 1028.4 |
| 20260506073003 | 56 | 144 | 2.6 | 5.2 | 0.00 | 0.00 | 0.00 | 55 | 1028.4 |
| 20260506072503 | 55 | 162 | 2.6 | 5.2 | 0.00 | 0.00 | 0.00 | 57 | 1028.4 |
| 20260506072003 | 55 | 162 | 3.5 | 5.2 | 0.00 | 0.00 | 0.00 | 58 | 1028.5 |
| 20260506071503 | 54 | 162 | 2.6 | 5.2 | 0.00 | 0.00 | 0.00 | 59 | 1028.5 |
| 20260506071003 | 54 | 166 | 3.5 | 6.1 | 0.00 | 0.00 | 0.00 | 59 | 1028.6 |
| 20260506070503 | 54 | 160 | 3.5 | 6.1 | 0.00 | 0.00 | 0.00 | 59 | 1028.4 |
| 20260506062503 | 51 | 189 | 2.6 | 5.2 | 0.00 | 0.00 | 0.00 | 64 | 1028.3 |
| 20260506062003 | 52 | 167 | 2.6 | 4.3 | 0.00 | 0.00 | 0.00 | 63 | 1028.3 |
| 20260506061524 | 51 | 165 | 2.6 | 4.3 | 0.00 | 0.00 | 0.00 | 64 | 1028.4 |
| 20260506061003 | 51 | 158 | 1.7 | 4.3 | 0.00 | 0.00 | 0.00 | 64 | 1028.2 |
| 20260506060503 | 51 | 137 | 1.7 | 4.3 | 0.00 | 0.00 | 0.00 | 62 | 1028.3 |
| 20260506051003 | 48 | 104 | 3.5 | 7.8 | 0.00 | 0.00 | 0.00 | 68 | 1028.3 |
| 20260506050503 | 48 | 100 | 5.2 | 8.7 | 0.00 | 0.00 | 0.00 | 68 | 1028.3 |
| 20260506045004 | 49 | 97 | 4.3 | 11.3 | 0.00 | 0.00 | 0.00 | 67 | 1028.2 |
| 20260506044503 | 48 | 104 | 5.2 | 10.4 | 0.00 | 0.00 | 0.00 | 68 | 1027.9 |
| 20260506044003 | 48 | 113 | 5.2 | 9.6 | 0.00 | 0.00 | 0.00 | 67 | 1028.0 |
| 20260506043503 | 48 | 129 | 5.2 | 9.6 | 0.00 | 0.00 | 0.00 | 68 | 1027.9 |
| 20260506043024 | 48 | 124 | 5.2 | 7.8 | 0.00 | 0.00 | 0.00 | 69 | 1028.1 |
| 20260506042524 | 48 | 129 | 4.3 | 7.8 | 0.00 | 0.00 | 0.00 | 69 | 1028.2 |
| 20260506042003 | 48 | 144 | 5.2 | 8.7 | 0.00 | 0.00 | 0.00 | 69 | 1028.0 |
| 20260506041503 | 48 | 145 | 5.2 | 8.7 | 0.00 | 0.00 | 0.00 | 69 | 1027.9 |
| 20260506041003 | 48 | 148 | 5.2 | 7.8 | 0.00 | 0.00 | 0.00 | 69 | 1028.1 |
| 20260506040503 | 48 | 148 | 5.2 | 8.7 | 0.00 | 0.00 | 0.00 | 69 | 1028.2 |
| 20260506040003 | 48 | 143 | 5.2 | 8.7 | 0.00 | 0.00 | 0.00 | 69 | 1028.1 |
| 20260506035503 | 47 | 149 | 5.2 | 8.7 | 0.00 | 0.00 | 0.00 | 70 | 1028.2 |
| 20260506035003 | 47 | 155 | 6.1 | 8.7 | 0.00 | 0.00 | 0.00 | 71 | 1028.0 |
| 20260506034503 | 47 | 155 | 5.2 | 7.8 | 0.00 | 0.00 | 0.00 | 70 | 1028.0 |
| 20260506034003 | 47 | 154 | 4.3 | 7.8 | 0.00 | 0.00 | 0.00 | 70 | 1028.1 |
| 20260506033503 | 47 | 153 | 5.2 | 8.7 | 0.00 | 0.00 | 0.00 | 69 | 1028.3 |
| 20260506033003 | 47 | 153 | 5.2 | 8.7 | 0.00 | 0.00 | 0.00 | 69 | 1028.2 |
| 20260506032503 | 47 | 159 | 5.2 | 9.6 | 0.00 | 0.00 | 0.00 | 69 | 1028.4 |
| 20260506032003 | 48 | 160 | 6.1 | 9.6 | 0.00 | 0.00 | 0.00 | 68 | 1028.4 |
| 20260506031503 | 48 | 152 | 5.2 | 8.7 | 0.00 | 0.00 | 0.00 | 67 | 1028.4 |
| 20260506031003 | 49 | 143 | 5.2 | 8.7 | 0.00 | 0.00 | 0.00 | 67 | 1028.5 |
| 20260506030503 | 49 | 145 | 5.2 | 9.6 | 0.00 | 0.00 | 0.00 | 67 | 1028.4 |
| 20260506030003 | 49 | 150 | 5.2 | 9.6 | 0.00 | 0.00 | 0.00 | 67 | 1028.2 |
| 20260506025503 | 48 | 153 | 5.2 | 7.8 | 0.00 | 0.00 | 0.00 | 68 | 1028.3 |
| 20260506025003 | 48 | 159 | 5.2 | 7.8 | 0.00 | 0.00 | 0.00 | 68 | 1028.1 |
| 20260506024503 | 48 | 160 | 3.5 | 7.0 | 0.00 | 0.00 | 0.00 | 68 | 1028.2 |
| 20260506024003 | 48 | 154 | 2.6 | 4.3 | 0.00 | 0.00 | 0.00 | 68 | 1028.3 |
| 20260506023503 | 49 | 149 | 3.5 | 5.2 | 0.00 | 0.00 | 0.00 | 66 | 1028.4 |
| 20260506023003 | 49 | 144 | 4.3 | 7.0 | 0.00 | 0.00 | 0.00 | 65 | 1028.4 |
| 20260506022503 | 49 | 139 | 5.2 | 7.0 | 0.00 | 0.00 | 0.00 | 65 | 1028.3 |
| 20260506022003 | 49 | 133 | 5.2 | 7.0 | 0.00 | 0.00 | 0.00 | 65 | 1028.4 |
| 20260506021503 | 49 | 124 | 4.3 | 7.0 | 0.00 | 0.00 | 0.00 | 65 | 1028.3 |
| 20260506021003 | 50 | 121 | 4.3 | 6.1 | 0.00 | 0.00 | 0.00 | 65 | 1028.6 |
| 20260506020524 | 50 | 121 | 5.2 | 7.8 | 0.00 | 0.00 | 0.00 | 64 | 1028.2 |
| 20260506020003 | 50 | 124 | 4.3 | 7.8 | 0.00 | 0.00 | 0.00 | 64 | 1028.1 |
| 20260506015503 | 50 | 121 | 4.3 | 7.0 | 0.00 | 0.00 | 0.00 | 65 | 1028.3 |
| 20260506015003 | 50 | 116 | 3.5 | 6.1 | 0.00 | 0.00 | 0.00 | 64 | 1028.1 |
| 20260506014503 | 50 | 116 | 4.3 | 6.1 | 0.00 | 0.00 | 0.00 | 64 | 1028.4 |
| 20260506014003 | 50 | 116 | 3.5 | 6.1 | 0.00 | 0.00 | 0.00 | 63 | 1028.3 |
| 20260506013524 | 50 | 112 | 4.3 | 6.1 | 0.00 | 0.00 | 0.00 | 63 | 1028.5 |
| 20260506013024 | 50 | 113 | 4.3 | 6.1 | 0.00 | 0.00 | 0.00 | 62 | 1028.5 |
| 20260506012503 | 51 | 118 | 4.3 | 6.1 | 0.00 | 0.00 | 0.00 | 62 | 1028.5 |
| 20260506012003 | 51 | 117 | 3.5 | 5.2 | 0.00 | 0.00 | 0.00 | 62 | 1028.5 |
| 20260506011524 | 51 | 117 | 3.5 | 5.2 | 0.00 | 0.00 | 0.00 | 62 | 1028.3 |
| 20260506011003 | 51 | 119 | 2.6 | 4.3 | 0.00 | 0.00 | 0.00 | 62 | 1028.5 |
| 20260506010503 | 51 | 115 | 2.6 | 4.3 | 0.00 | 0.00 | 0.00 | 62 | 1028.5 |
| 20260506010003 | 51 | 109 | 2.6 | 4.3 | 0.00 | 0.00 | 0.00 | 62 | 1028.5 |
| 20260506005503 | 51 | 104 | 2.6 | 4.3 | 0.00 | 0.00 | 0.00 | 61 | 1028.6 |
| 20260506005003 | 51 | 104 | 2.6 | 5.2 | 0.00 | 0.00 | 0.00 | 61 | 1028.8 |
| 20260506004504 | 52 | 112 | 3.5 | 5.2 | 0.00 | 0.00 | 0.00 | 60 | 1028.5 |
| 20260506004003 | 52 | 114 | 2.6 | 4.3 | 0.00 | 0.00 | 0.00 | 60 | 1028.9 |
| 20260506003503 | 52 | 107 | 2.6 | 4.3 | 0.00 | 0.00 | 0.00 | 60 | 1028.7 |